Darstellungsparameter: Aktuell verwendete Einstellungen:
Skalierung der Graphiken ... ?
xyx+y,   Skalierungsfaktor:      Skalierung: Modus: x, Faktor: 1
Darstellungszeitraum ... ?
Vom - - bis: - -   Zeitraum: 22.05.2019 - 24.05.2019
Min/Max/Avg-Anzeige ... ?
Zeige MMA aktuell
Zeige MMA Monat
Zeige MMA alles
Zeige --A aktuell
Zeige --A Monat
Zeige --A alles
Keine MMA-Anzeige
MMA:
Average (ber die Originaldaten)
MMA-Basis: 22.05.2019 - 24.05.2019
Quicknavigation für Darstellung... ?
Tage:      1T, 2T, 3T, 5T -1T -2T -3T -5T +1T +2T +3T +5T
Wochen: 1W, 2W, 3W -1W -2W -3W +1W +2W +3W
Monate: 1M, 3M, 6M -1M -3M -6M +1M +3M +6M
Jahre:    1J, 3J, 5J, 10J -1J -3J -5J -10J +1J +3J +5J +10J
Nutze für die Darstellung ... ?
Originaldaten oder Mittelwerte auf ...
Stundenbasis Tagesbasis Wochenbasis
Monatsbasis Jahresbasis      Datenbasis: Original-Daten
Darstellen als:
Statistik (Auto) Statistik J:M      Darstellung:
Zur Graphik,    zurück zur Übersicht aller Sensoren.
 
Tabellarische Datenbersicht: ?
 
Sensor: Nr:Datum:Temp:Abs-Feuchte:Windchill:Wind:
Aussen-T/F 1 22-05-2019 00:00:00 11.8 C 10.1 g/m*3 11.8 C 0 km/h
2 22-05-2019 00:05:00 11.8 C 10.1 g/m*3 11.8 C 0 km/h
3 22-05-2019 00:10:00 11.8 C 10.1 g/m*3 11.8 C 0 km/h
4 22-05-2019 00:15:00 11.8 C 10.1 g/m*3 11.8 C 0 km/h
5 22-05-2019 00:20:00 11.8 C 10.1 g/m*3 11.8 C 0 km/h
6 22-05-2019 00:25:00 11.8 C 10.1 g/m*3 11.8 C 0 km/h
7 22-05-2019 00:30:00 11.8 C 10.1 g/m*3 11.8 C 0 km/h
8 22-05-2019 00:35:00 11.8 C 10.1 g/m*3 11.8 C 0 km/h
9 22-05-2019 00:40:00 11.8 C 10.1 g/m*3 11.8 C 0 km/h
10 22-05-2019 00:45:00 11.8 C 10.1 g/m*3 11.8 C 0 km/h
11 22-05-2019 00:50:00 11.8 C 10.1 g/m*3 11.8 C 0 km/h
12 22-05-2019 00:55:00 11.8 C 10.1 g/m*3 11.8 C 0 km/h
13 22-05-2019 01:00:00 11.8 C 10.1 g/m*3 11.8 C 0 km/h
14 22-05-2019 01:05:00 11.8 C 10.1 g/m*3 11.8 C 1.6 km/h
15 22-05-2019 01:10:00 11.8 C 10.1 g/m*3 11.8 C 0 km/h
16 22-05-2019 01:15:00 11.8 C 10.1 g/m*3 11.8 C 0 km/h
17 22-05-2019 01:20:00 11.8 C 10.1 g/m*3 11.8 C 0 km/h
18 22-05-2019 01:25:00 11.8 C 10.1 g/m*3 11.8 C 0 km/h
19 22-05-2019 01:30:00 11.8 C 10.1 g/m*3 11.8 C 0 km/h
20 22-05-2019 01:35:00 11.7 C 10.04 g/m*3 11.7 C 3.2 km/h
21 22-05-2019 01:40:00 11.7 C 10.04 g/m*3 11.7 C 3.2 km/h
22 22-05-2019 01:45:00 11.7 C 10.04 g/m*3 11.7 C 0 km/h
23 22-05-2019 01:50:00 11.7 C 10.04 g/m*3 11.7 C 1.6 km/h
24 22-05-2019 01:55:00 11.6 C 9.98 g/m*3 11.6 C 6.4 km/h
25 22-05-2019 02:00:00 11.6 C 9.98 g/m*3 11.6 C 14.5 km/h
Sensor: Nr:Datum:Temp:Abs-Feuchte:Windchill:Wind:
Aussen-T/F 26 22-05-2019 02:05:00 11.6 C 9.98 g/m*3 11.6 C 4.8 km/h
27 22-05-2019 02:10:00 11.6 C 9.98 g/m*3 11.6 C 3.2 km/h
28 22-05-2019 02:15:00 11.6 C 9.98 g/m*3 11.6 C 4.8 km/h
29 22-05-2019 02:20:00 11.6 C 9.98 g/m*3 11.6 C 3.2 km/h
30 22-05-2019 02:25:00 11.5 C 9.92 g/m*3 11.5 C 0 km/h
31 22-05-2019 02:30:00 11.6 C 9.98 g/m*3 11.6 C 6.4 km/h
32 22-05-2019 02:35:00 11.6 C 9.98 g/m*3 11.6 C 3.2 km/h
33 22-05-2019 02:40:00 11.6 C 9.98 g/m*3 11.6 C 0 km/h
34 22-05-2019 02:45:00 11.5 C 9.92 g/m*3 11.5 C 4.8 km/h
35 22-05-2019 02:50:00 11.5 C 9.92 g/m*3 11.5 C 4.8 km/h
36 22-05-2019 02:55:00 11.5 C 9.92 g/m*3 11.5 C 4.8 km/h
37 22-05-2019 03:00:00 11.5 C 9.92 g/m*3 11.5 C 1.6 km/h
38 22-05-2019 03:05:00 11.5 C 9.92 g/m*3 11.5 C 3.2 km/h
39 22-05-2019 03:10:00 11.5 C 9.92 g/m*3 11.5 C 1.6 km/h
40 22-05-2019 03:15:00 11.6 C 9.98 g/m*3 11.6 C 0 km/h
41 22-05-2019 03:20:00 11.6 C 9.98 g/m*3 11.6 C 6.4 km/h
42 22-05-2019 03:25:00 11.6 C 9.98 g/m*3 11.6 C 4.8 km/h
43 22-05-2019 03:30:00 11.6 C 9.98 g/m*3 11.6 C 1.6 km/h
44 22-05-2019 03:35:00 11.6 C 9.98 g/m*3 11.6 C 4.8 km/h
45 22-05-2019 03:40:00 11.6 C 9.98 g/m*3 11.6 C 3.2 km/h
46 22-05-2019 03:45:00 11.6 C 9.98 g/m*3 11.6 C 3.2 km/h
47 22-05-2019 03:50:00 11.6 C 9.98 g/m*3 11.6 C 1.6 km/h
48 22-05-2019 03:55:00 11.6 C 9.98 g/m*3 11.6 C 0 km/h
49 22-05-2019 04:00:00 11.6 C 9.98 g/m*3 11.6 C 1.6 km/h
50 22-05-2019 04:05:00 11.5 C 9.92 g/m*3 11.5 C 4.8 km/h
Sensor: Nr:Datum:Temp:Abs-Feuchte:Windchill:Wind:
Aussen-T/F 51 22-05-2019 04:10:00 11.5 C 9.92 g/m*3 11.5 C 8.1 km/h
52 22-05-2019 04:15:00 11.5 C 9.81 g/m*3 11.5 C 9.7 km/h
53 22-05-2019 04:20:00 11.4 C 9.75 g/m*3 11.4 C 9.7 km/h
54 22-05-2019 04:25:00 11.4 C 9.75 g/m*3 11.4 C 4.8 km/h
55 22-05-2019 04:30:00 11.4 C 9.75 g/m*3 11.4 C 8.1 km/h
56 22-05-2019 04:35:00 11.4 C 9.75 g/m*3 11.4 C 6.4 km/h
57 22-05-2019 04:40:00 11.4 C 9.75 g/m*3 11.4 C 4.8 km/h
58 22-05-2019 04:45:00 11.4 C 9.75 g/m*3 11.4 C 6.4 km/h
59 22-05-2019 04:50:00 11.4 C 9.75 g/m*3 11.4 C 6.4 km/h
60 22-05-2019 04:55:00 11.4 C 9.75 g/m*3 11.4 C 6.4 km/h
61 22-05-2019 05:00:00 11.4 C 9.75 g/m*3 11.4 C 0 km/h
62 22-05-2019 05:05:00 11.4 C 9.75 g/m*3 11.4 C 4.8 km/h
63 22-05-2019 05:10:00 11.4 C 9.75 g/m*3 11.4 C 4.8 km/h
64 22-05-2019 05:15:00 11.4 C 9.75 g/m*3 11.4 C 6.4 km/h
65 22-05-2019 05:20:00 11.4 C 9.75 g/m*3 11.4 C 4.8 km/h
66 22-05-2019 05:25:00 11.3 C 9.69 g/m*3 11.3 C 8.1 km/h
67 22-05-2019 05:30:00 11.3 C 9.69 g/m*3 11.3 C 4.8 km/h
68 22-05-2019 05:35:00 11.3 C 9.69 g/m*3 11.3 C 4.8 km/h
69 22-05-2019 05:40:00 11.3 C 9.69 g/m*3 11.3 C 4.8 km/h
70 22-05-2019 05:45:00 11.3 C 9.69 g/m*3 11.3 C 1.6 km/h
71 22-05-2019 05:50:00 11.3 C 9.69 g/m*3 11.3 C 14.5 km/h
72 22-05-2019 05:55:00 11.2 C 9.63 g/m*3 11.2 C 12.9 km/h
73 22-05-2019 06:00:00 11.2 C 9.53 g/m*3 11.2 C 9.7 km/h
74 22-05-2019 06:05:00 11.2 C 9.53 g/m*3 11.2 C 8.1 km/h
75 22-05-2019 06:10:00 11.2 C 9.53 g/m*3 11.2 C 6.4 km/h
Sensor: Nr:Datum:Temp:Abs-Feuchte:Windchill:Wind:
Aussen-T/F 76 22-05-2019 06:15:00 11.1 C 9.47 g/m*3 11.1 C 8.1 km/h
77 22-05-2019 06:20:00 11.1 C 9.47 g/m*3 11.1 C 8.1 km/h
78 22-05-2019 06:25:00 11.1 C 9.47 g/m*3 11.1 C 6.4 km/h
79 22-05-2019 06:30:00 11.1 C 9.47 g/m*3 11.1 C 8.1 km/h
80 22-05-2019 06:35:00 11 C 9.41 g/m*3 9.63 C 11.3 km/h
81 22-05-2019 06:40:00 11 C 9.41 g/m*3 9.21 C 14.5 km/h
82 22-05-2019 06:45:00 10.9 C 9.35 g/m*3 10.04 C 8.1 km/h
83 22-05-2019 06:50:00 10.9 C 9.35 g/m*3 10.41 C 6.4 km/h
84 22-05-2019 06:55:00 10.8 C 9.29 g/m*3 9.93 C 8.1 km/h
85 22-05-2019 07:00:00 10.8 C 9.29 g/m*3 9.38 C 11.3 km/h
86 22-05-2019 07:05:00 10.8 C 9.29 g/m*3 10.29 C 6.4 km/h
87 22-05-2019 07:10:00 10.8 C 9.29 g/m*3 10.29 C 6.4 km/h
88 22-05-2019 07:15:00 10.8 C 9.29 g/m*3 9.38 C 11.3 km/h
89 22-05-2019 07:20:00 10.7 C 9.13 g/m*3 9.81 C 8.1 km/h
90 22-05-2019 07:25:00 10.7 C 9.13 g/m*3 8.84 C 14.5 km/h
91 22-05-2019 07:30:00 10.7 C 9.13 g/m*3 8.84 C 14.5 km/h
92 22-05-2019 07:35:00 10.6 C 9.08 g/m*3 9.4 C 9.7 km/h
93 22-05-2019 07:40:00 10.6 C 9.08 g/m*3 9.69 C 8.1 km/h
94 22-05-2019 07:45:00 10.5 C 9.02 g/m*3 9.02 C 11.3 km/h
95 22-05-2019 07:50:00 10.5 C 9.02 g/m*3 9.95 C 6.4 km/h
96 22-05-2019 07:55:00 10.5 C 9.02 g/m*3 9.02 C 11.3 km/h
97 22-05-2019 08:00:00 10.4 C 8.96 g/m*3 9.16 C 9.7 km/h
98 22-05-2019 08:05:00 10.4 C 8.96 g/m*3 9.16 C 9.7 km/h
99 22-05-2019 08:10:00 10.3 C 8.91 g/m*3 8.78 C 11.3 km/h
100 22-05-2019 08:15:00 10.3 C 8.91 g/m*3 9.04 C 9.7 km/h
Sensor: Nr:Datum:Temp:Abs-Feuchte:Windchill:Wind:
Aussen-T/F 101 22-05-2019 08:20:00 10.3 C 8.81 g/m*3 10.3 C 3.2 km/h
102 22-05-2019 08:25:00 10.3 C 8.81 g/m*3 9.34 C 8.1 km/h
103 22-05-2019 08:30:00 10.3 C 8.81 g/m*3 9.72 C 6.4 km/h
104 22-05-2019 08:35:00 10.3 C 8.81 g/m*3 9.04 C 9.7 km/h
105 22-05-2019 08:40:00 10.3 C 8.71 g/m*3 9.34 C 8.1 km/h
106 22-05-2019 08:45:00 10.3 C 8.71 g/m*3 9.72 C 6.4 km/h
107 22-05-2019 08:50:00 10.4 C 8.77 g/m*3 10.4 C 4.8 km/h
108 22-05-2019 08:55:00 10.4 C 8.67 g/m*3 9.83 C 6.4 km/h
109 22-05-2019 09:00:00 10.4 C 8.58 g/m*3 9.46 C 8.1 km/h
110 22-05-2019 09:05:00 10.4 C 8.58 g/m*3 9.16 C 9.7 km/h
111 22-05-2019 09:10:00 10.4 C 8.48 g/m*3 8.9 C 11.3 km/h
112 22-05-2019 09:15:00 10.4 C 8.58 g/m*3 9.16 C 9.7 km/h
113 22-05-2019 09:20:00 10.4 C 8.38 g/m*3 9.46 C 8.1 km/h
114 22-05-2019 09:25:00 10.4 C 8.38 g/m*3 8.9 C 11.3 km/h
115 22-05-2019 09:30:00 10.4 C 8.38 g/m*3 9.83 C 6.4 km/h
116 22-05-2019 09:35:00 10.5 C 8.44 g/m*3 9.57 C 8.1 km/h
117 22-05-2019 09:40:00 10.6 C 8.49 g/m*3 10.6 C 3.2 km/h
118 22-05-2019 09:45:00 10.6 C 8.39 g/m*3 10.06 C 6.4 km/h
119 22-05-2019 09:50:00 10.6 C 8.3 g/m*3 9.4 C 9.7 km/h
120 22-05-2019 09:55:00 10.6 C 8.39 g/m*3 10.06 C 6.4 km/h
121 22-05-2019 10:00:00 10.6 C 8.39 g/m*3 9.69 C 8.1 km/h
122 22-05-2019 10:05:00 10.7 C 8.45 g/m*3 10.7 C 3.2 km/h
123 22-05-2019 10:10:00 10.7 C 8.35 g/m*3 9.26 C 11.3 km/h
124 22-05-2019 10:15:00 10.8 C 8.3 g/m*3 9.38 C 11.3 km/h
125 22-05-2019 10:20:00 10.8 C 8.2 g/m*3 10.8 C 4.8 km/h
Sensor: Nr:Datum:Temp:Abs-Feuchte:Windchill:Wind:
Aussen-T/F 126 22-05-2019 10:25:00 10.9 C 8.26 g/m*3 10.04 C 8.1 km/h
127 22-05-2019 10:30:00 10.9 C 8.16 g/m*3 9.76 C 9.7 km/h
128 22-05-2019 10:35:00 11 C 8.31 g/m*3 11 C 4.8 km/h
129 22-05-2019 10:40:00 11 C 8.21 g/m*3 9.63 C 11.3 km/h
130 22-05-2019 10:45:00 11 C 8.21 g/m*3 9.21 C 14.5 km/h
131 22-05-2019 10:50:00 11.1 C 8.36 g/m*3 11.1 C 4.8 km/h
132 22-05-2019 10:55:00 11.1 C 8.26 g/m*3 11.1 C 8.1 km/h
133 22-05-2019 11:00:00 11.2 C 8.41 g/m*3 11.2 C 11.3 km/h
134 22-05-2019 11:05:00 11.2 C 8.41 g/m*3 11.2 C 8.1 km/h
135 22-05-2019 11:10:00 11.3 C 8.47 g/m*3 11.3 C 8.1 km/h
136 22-05-2019 11:15:00 11.3 C 8.47 g/m*3 11.3 C 8.1 km/h
137 22-05-2019 11:20:00 11.3 C 8.36 g/m*3 11.3 C 11.3 km/h
138 22-05-2019 11:25:00 11.3 C 8.47 g/m*3 11.3 C 6.4 km/h
139 22-05-2019 11:30:00 11.4 C 8.52 g/m*3 11.4 C 8.1 km/h
140 22-05-2019 11:35:00 11.6 C 8.52 g/m*3 11.6 C 4.8 km/h
141 22-05-2019 11:40:00 11.7 C 8.68 g/m*3 11.7 C 8.1 km/h
142 22-05-2019 11:45:00 11.8 C 8.63 g/m*3 11.8 C 11.3 km/h
143 22-05-2019 11:50:00 12 C 8.63 g/m*3 12 C 11.3 km/h
144 22-05-2019 11:55:00 12.1 C 8.58 g/m*3 12.1 C 9.7 km/h
145 22-05-2019 12:00:00 12.3 C 8.69 g/m*3 12.3 C 9.7 km/h
146 22-05-2019 12:05:00 12.4 C 8.63 g/m*3 12.4 C 12.9 km/h
147 22-05-2019 12:10:00 12.6 C 8.74 g/m*3 12.6 C 9.7 km/h
148 22-05-2019 12:15:00 12.6 C 8.63 g/m*3 12.6 C 8.1 km/h
149 22-05-2019 12:20:00 12.7 C 8.57 g/m*3 12.7 C 9.7 km/h
150 22-05-2019 12:25:00 12.8 C 8.4 g/m*3 12.8 C 8.1 km/h
Sensor: Nr:Datum:Temp:Abs-Feuchte:Windchill:Wind:
Aussen-T/F 151 22-05-2019 12:30:00 12.9 C 8.57 g/m*3 12.9 C 8.1 km/h
152 22-05-2019 12:35:00 13.1 C 8.67 g/m*3 13.1 C 6.4 km/h
153 22-05-2019 12:40:00 13.2 C 8.5 g/m*3 13.2 C 11.3 km/h
154 22-05-2019 12:45:00 13.2 C 8.61 g/m*3 13.2 C 8.1 km/h
155 22-05-2019 12:50:00 13.2 C 8.73 g/m*3 13.2 C 12.9 km/h
156 22-05-2019 12:55:00 13.2 C 8.61 g/m*3 13.2 C 12.9 km/h
157 22-05-2019 13:00:00 13.2 C 8.38 g/m*3 13.2 C 11.3 km/h
158 22-05-2019 13:05:00 13.2 C 8.5 g/m*3 13.2 C 6.4 km/h
159 22-05-2019 13:10:00 13.3 C 8.78 g/m*3 13.3 C 8.1 km/h
160 22-05-2019 13:15:00 13.4 C 8.72 g/m*3 13.4 C 8.1 km/h
161 22-05-2019 13:20:00 13.3 C 8.43 g/m*3 13.3 C 8.1 km/h
162 22-05-2019 13:25:00 13.4 C 8.72 g/m*3 13.4 C 8.1 km/h
163 22-05-2019 13:30:00 13.7 C 8.76 g/m*3 13.7 C 11.3 km/h
164 22-05-2019 13:35:00 14 C 8.81 g/m*3 14 C 6.4 km/h
165 22-05-2019 13:40:00 14.1 C 8.74 g/m*3 14.1 C 9.7 km/h
166 22-05-2019 13:45:00 13.9 C 8.63 g/m*3 13.9 C 4.8 km/h
167 22-05-2019 13:50:00 14.1 C 9.1 g/m*3 14.1 C 6.4 km/h
168 22-05-2019 13:55:00 14.3 C 8.72 g/m*3 14.3 C 9.7 km/h
169 22-05-2019 14:00:00 14.5 C 8.95 g/m*3 14.5 C 6.4 km/h
170 22-05-2019 14:05:00 14.6 C 9.01 g/m*3 14.6 C 6.4 km/h
171 22-05-2019 14:10:00 14.7 C 9.07 g/m*3 14.7 C 9.7 km/h
172 22-05-2019 14:15:00 14.7 C 8.69 g/m*3 14.7 C 8.1 km/h
173 22-05-2019 14:20:00 14.8 C 8.87 g/m*3 14.8 C 8.1 km/h
174 22-05-2019 14:25:00 15 C 8.98 g/m*3 15 C 11.3 km/h
175 22-05-2019 14:30:00 15 C 8.85 g/m*3 15 C 8.1 km/h
Sensor: Nr:Datum:Temp:Abs-Feuchte:Windchill:Wind:
Aussen-T/F 176 22-05-2019 14:35:00 15.1 C 9.16 g/m*3 15.1 C 9.7 km/h
177 22-05-2019 14:40:00 15.2 C 9.09 g/m*3 15.2 C 11.3 km/h
178 22-05-2019 14:45:00 15.3 C 8.75 g/m*3 15.3 C 11.3 km/h
179 22-05-2019 14:50:00 15.6 C 8.91 g/m*3 15.6 C 12.9 km/h
180 22-05-2019 14:55:00 15.7 C 8.96 g/m*3 15.7 C 9.7 km/h
181 22-05-2019 15:00:00 15.9 C 8.94 g/m*3 15.9 C 8.1 km/h
182 22-05-2019 15:05:00 16.1 C 8.91 g/m*3 16.1 C 6.4 km/h
183 22-05-2019 15:10:00 16.2 C 8.83 g/m*3 16.2 C 12.9 km/h
184 22-05-2019 15:15:00 16.3 C 9.16 g/m*3 16.3 C 8.1 km/h
185 22-05-2019 15:20:00 16.6 C 9.18 g/m*3 16.6 C 11.3 km/h
186 22-05-2019 15:25:00 16.7 C 9.66 g/m*3 16.7 C 11.3 km/h
187 22-05-2019 15:30:00 17 C 9.26 g/m*3 17 C 9.7 km/h
188 22-05-2019 15:35:00 17.6 C 9.3 g/m*3 17.6 C 9.7 km/h
189 22-05-2019 15:40:00 17.9 C 9.47 g/m*3 17.9 C 8.1 km/h
190 22-05-2019 15:45:00 18.1 C 9.27 g/m*3 18.1 C 8.1 km/h
191 22-05-2019 15:50:00 18.2 C 9.79 g/m*3 18.2 C 6.4 km/h
192 22-05-2019 15:55:00 18.4 C 9.44 g/m*3 18.4 C 8.1 km/h
193 22-05-2019 16:00:00 18.6 C 9.55 g/m*3 18.6 C 11.3 km/h
194 22-05-2019 16:05:00 18.8 C 9.66 g/m*3 18.8 C 4.8 km/h
195 22-05-2019 16:10:00 19.1 C 9.67 g/m*3 19.1 C 4.8 km/h
196 22-05-2019 16:15:00 19.3 C 9.79 g/m*3 19.3 C 4.8 km/h
197 22-05-2019 16:20:00 19.2 C 9.23 g/m*3 19.2 C 8.1 km/h
198 22-05-2019 16:25:00 18.9 C 9.23 g/m*3 18.9 C 6.4 km/h
199 22-05-2019 16:30:00 18.6 C 9.71 g/m*3 18.6 C 9.7 km/h
200 22-05-2019 16:35:00 18.2 C 9.17 g/m*3 18.2 C 8.1 km/h
Sensor: Nr:Datum:Temp:Abs-Feuchte:Windchill:Wind:
Aussen-T/F 201 22-05-2019 16:40:00 18.1 C 9.12 g/m*3 18.1 C 6.4 km/h
202 22-05-2019 16:45:00 18.2 C 9.17 g/m*3 18.2 C 6.4 km/h
203 22-05-2019 16:50:00 18.3 C 9.38 g/m*3 18.3 C 3.2 km/h
204 22-05-2019 16:55:00 18.2 C 9.17 g/m*3 18.2 C 6.4 km/h
205 22-05-2019 17:00:00 18.1 C 9.12 g/m*3 18.1 C 4.8 km/h
206 22-05-2019 17:05:00 18.2 C 9.01 g/m*3 18.2 C 8.1 km/h
207 22-05-2019 17:10:00 18.3 C 9.07 g/m*3 18.3 C 8.1 km/h
208 22-05-2019 17:15:00 18.1 C 9.43 g/m*3 18.1 C 0 km/h
209 22-05-2019 17:20:00 18.1 C 9.27 g/m*3 18.1 C 6.4 km/h
210 22-05-2019 17:25:00 18.1 C 9.27 g/m*3 18.1 C 6.4 km/h
211 22-05-2019 17:30:00 17.9 C 9.16 g/m*3 17.9 C 6.4 km/h
212 22-05-2019 17:35:00 17.9 C 9.16 g/m*3 17.9 C 3.2 km/h
213 22-05-2019 17:40:00 18.3 C 9.22 g/m*3 18.3 C 8.1 km/h
214 22-05-2019 17:45:00 18.4 C 8.97 g/m*3 18.4 C 11.3 km/h
215 22-05-2019 17:50:00 18.6 C 8.91 g/m*3 18.6 C 6.4 km/h
216 22-05-2019 17:55:00 18.9 C 9.23 g/m*3 18.9 C 6.4 km/h
217 22-05-2019 18:00:00 19.1 C 8.85 g/m*3 19.1 C 8.1 km/h
218 22-05-2019 18:05:00 19.1 C 9.18 g/m*3 19.1 C 9.7 km/h
219 22-05-2019 18:10:00 19.2 C 9.07 g/m*3 19.2 C 11.3 km/h
220 22-05-2019 18:15:00 19.3 C 9.45 g/m*3 19.3 C 8.1 km/h
221 22-05-2019 18:20:00 19.5 C 9.06 g/m*3 19.5 C 4.8 km/h
222 22-05-2019 18:25:00 19.6 C 9.28 g/m*3 19.6 C 6.4 km/h
223 22-05-2019 18:30:00 19.6 C 9.12 g/m*3 19.6 C 4.8 km/h
224 22-05-2019 18:35:00 19.6 C 9.12 g/m*3 19.6 C 11.3 km/h
225 22-05-2019 18:40:00 19.6 C 8.78 g/m*3 19.6 C 6.4 km/h
Sensor: Nr:Datum:Temp:Abs-Feuchte:Windchill:Wind:
Aussen-T/F 226 22-05-2019 18:45:00 19.6 C 8.95 g/m*3 19.6 C 4.8 km/h
227 22-05-2019 18:50:00 19.7 C 8.83 g/m*3 19.7 C 3.2 km/h
228 22-05-2019 18:55:00 19.7 C 9 g/m*3 19.7 C 6.4 km/h
229 22-05-2019 19:00:00 19.6 C 8.61 g/m*3 19.6 C 8.1 km/h
230 22-05-2019 19:05:00 19.4 C 8.51 g/m*3 19.4 C 8.1 km/h
231 22-05-2019 19:10:00 19.3 C 8.63 g/m*3 19.3 C 9.7 km/h
232 22-05-2019 19:15:00 19.2 C 8.74 g/m*3 19.2 C 6.4 km/h
233 22-05-2019 19:20:00 19.1 C 8.52 g/m*3 19.1 C 4.8 km/h
234 22-05-2019 19:25:00 19 C 8.8 g/m*3 19 C 3.2 km/h
235 22-05-2019 19:30:00 18.8 C 8.7 g/m*3 18.8 C 3.2 km/h
236 22-05-2019 19:35:00 18.8 C 8.54 g/m*3 18.8 C 0 km/h
237 22-05-2019 19:40:00 18.8 C 9.99 g/m*3 18.8 C 0 km/h
238 22-05-2019 19:45:00 18.8 C 9.99 g/m*3 18.8 C 0 km/h
239 22-05-2019 19:50:00 18.8 C 10.15 g/m*3 18.8 C 0 km/h
240 22-05-2019 19:55:00 18.7 C 10.57 g/m*3 18.7 C 0 km/h
241 22-05-2019 20:00:00 18.6 C 10.82 g/m*3 18.6 C 0 km/h
242 22-05-2019 20:05:00 18.4 C 10.85 g/m*3 18.4 C 0 km/h
243 22-05-2019 20:10:00 18.2 C 10.88 g/m*3 18.2 C 0 km/h
244 22-05-2019 20:15:00 18 C 10.91 g/m*3 18 C 0 km/h
245 22-05-2019 20:20:00 17.8 C 10.78 g/m*3 17.8 C 0 km/h
246 22-05-2019 20:25:00 17.5 C 10.59 g/m*3 17.5 C 0 km/h
247 22-05-2019 20:30:00 17.3 C 10.61 g/m*3 17.3 C 0 km/h
248 22-05-2019 20:35:00 17 C 10.42 g/m*3 17 C 0 km/h
249 22-05-2019 20:40:00 16.7 C 10.23 g/m*3 16.7 C 0 km/h
250 22-05-2019 20:45:00 16.3 C 9.85 g/m*3 16.3 C 0 km/h
Sensor: Nr:Datum:Temp:Abs-Feuchte:Windchill:Wind:
Aussen-T/F 251 22-05-2019 20:50:00 15.8 C 9.69 g/m*3 15.8 C 0 km/h
252 22-05-2019 20:55:00 15.3 C 9.4 g/m*3 15.3 C 0 km/h
253 22-05-2019 21:00:00 15 C 9.36 g/m*3 15 C 0 km/h
254 22-05-2019 21:05:00 14.7 C 9.32 g/m*3 14.7 C 0 km/h
255 22-05-2019 21:10:00 14.3 C 9.09 g/m*3 14.3 C 0 km/h
256 22-05-2019 21:15:00 14.1 C 8.98 g/m*3 14.1 C 0 km/h
257 22-05-2019 21:20:00 13.9 C 8.99 g/m*3 13.9 C 0 km/h
258 22-05-2019 21:25:00 13.7 C 9 g/m*3 13.7 C 0 km/h
259 22-05-2019 21:30:00 13.6 C 8.94 g/m*3 13.6 C 0 km/h
260 22-05-2019 21:35:00 13.4 C 8.95 g/m*3 13.4 C 0 km/h
261 22-05-2019 21:40:00 13.3 C 9.13 g/m*3 13.3 C 0 km/h
262 22-05-2019 21:45:00 13.1 C 9.13 g/m*3 13.1 C 0 km/h
263 22-05-2019 21:50:00 12.9 C 9.02 g/m*3 12.9 C 0 km/h
264 22-05-2019 21:55:00 12.8 C 9.07 g/m*3 12.8 C 0 km/h
265 22-05-2019 22:00:00 12.7 C 9.13 g/m*3 12.7 C 0 km/h
266 22-05-2019 22:05:00 12.5 C 9.02 g/m*3 12.5 C 0 km/h
267 22-05-2019 22:10:00 12.3 C 9.01 g/m*3 12.3 C 0 km/h
268 22-05-2019 22:15:00 12.1 C 9.01 g/m*3 12.1 C 0 km/h
269 22-05-2019 22:20:00 11.8 C 8.95 g/m*3 11.8 C 0 km/h
270 22-05-2019 22:25:00 11.6 C 8.94 g/m*3 11.6 C 0 km/h
271 22-05-2019 22:30:00 11.4 C 8.93 g/m*3 11.4 C 0 km/h
272 22-05-2019 22:35:00 11.3 C 8.87 g/m*3 11.3 C 0 km/h
273 22-05-2019 22:40:00 11.2 C 8.82 g/m*3 11.2 C 0 km/h
274 22-05-2019 22:45:00 11.1 C 8.86 g/m*3 11.1 C 0 km/h
275 22-05-2019 22:50:00 10.9 C 8.75 g/m*3 10.9 C 0 km/h
Sensor: Nr:Datum:Temp:Abs-Feuchte:Windchill:Wind:
Aussen-T/F 276 22-05-2019 22:55:00 10.8 C 8.7 g/m*3 10.8 C 0 km/h
277 22-05-2019 23:00:00 10.7 C 8.74 g/m*3 10.7 C 0 km/h
278 22-05-2019 23:05:00 10.7 C 8.74 g/m*3 10.7 C 0 km/h
279 22-05-2019 23:10:00 10.6 C 8.69 g/m*3 10.6 C 0 km/h
280 22-05-2019 23:15:00 10.5 C 8.63 g/m*3 10.5 C 0 km/h
281 22-05-2019 23:20:00 10.4 C 8.67 g/m*3 10.4 C 0 km/h
282 22-05-2019 23:25:00 10.4 C 8.67 g/m*3 10.4 C 0 km/h
283 22-05-2019 23:30:00 10.3 C 8.62 g/m*3 10.3 C 0 km/h
284 22-05-2019 23:35:00 10.2 C 8.56 g/m*3 10.2 C 0 km/h
285 22-05-2019 23:40:00 10.2 C 8.56 g/m*3 10.2 C 0 km/h
286 22-05-2019 23:45:00 10.1 C 8.51 g/m*3 10.1 C 0 km/h
287 22-05-2019 23:50:00 10 C 8.46 g/m*3 10 C 0 km/h
288 22-05-2019 23:55:00 9.9 C 8.4 g/m*3 9.9 C 0 km/h
289 23-05-2019 00:00:00 9.8 C 8.44 g/m*3 9.8 C 0 km/h
290 23-05-2019 00:05:00 9.7 C 8.39 g/m*3 9.7 C 0 km/h
291 23-05-2019 00:10:00 9.7 C 8.39 g/m*3 9.7 C 0 km/h
292 23-05-2019 00:15:00 9.6 C 8.34 g/m*3 9.6 C 0 km/h
293 23-05-2019 00:20:00 9.6 C 8.34 g/m*3 9.6 C 0 km/h
294 23-05-2019 00:25:00 9.5 C 8.37 g/m*3 9.5 C 0 km/h
295 23-05-2019 00:30:00 9.5 C 8.37 g/m*3 9.5 C 0 km/h
296 23-05-2019 00:35:00 9.4 C 8.32 g/m*3 9.4 C 0 km/h
297 23-05-2019 00:40:00 9.4 C 8.32 g/m*3 9.4 C 0 km/h
298 23-05-2019 00:45:00 9.3 C 8.27 g/m*3 9.3 C 0 km/h
299 23-05-2019 00:50:00 9.3 C 8.27 g/m*3 9.3 C 0 km/h
300 23-05-2019 00:55:00 9.2 C 8.3 g/m*3 9.2 C 0 km/h
Sensor: Nr:Datum:Temp:Abs-Feuchte:Windchill:Wind:
Aussen-T/F 301 23-05-2019 01:00:00 9.2 C 8.3 g/m*3 9.2 C 0 km/h
302 23-05-2019 01:05:00 9.2 C 8.3 g/m*3 9.2 C 0 km/h
303 23-05-2019 01:10:00 9.1 C 8.16 g/m*3 9.1 C 0 km/h
304 23-05-2019 01:15:00 9.1 C 8.25 g/m*3 9.1 C 0 km/h
305 23-05-2019 01:20:00 9 C 8.2 g/m*3 9 C 0 km/h
306 23-05-2019 01:25:00 9 C 8.2 g/m*3 9 C 0 km/h
307 23-05-2019 01:30:00 8.9 C 8.15 g/m*3 8.9 C 0 km/h
308 23-05-2019 01:35:00 8.9 C 8.15 g/m*3 8.9 C 0 km/h
309 23-05-2019 01:40:00 8.9 C 8.15 g/m*3 8.9 C 0 km/h
310 23-05-2019 01:45:00 8.8 C 8.09 g/m*3 8.8 C 0 km/h
311 23-05-2019 01:50:00 8.8 C 8.09 g/m*3 8.8 C 0 km/h
312 23-05-2019 01:55:00 8.8 C 8.09 g/m*3 8.8 C 0 km/h
313 23-05-2019 02:00:00 8.8 C 8.09 g/m*3 8.8 C 0 km/h
314 23-05-2019 02:05:00 8.7 C 8.04 g/m*3 8.7 C 0 km/h
315 23-05-2019 02:10:00 8.7 C 8.04 g/m*3 8.7 C 0 km/h
316 23-05-2019 02:15:00 8.6 C 7.99 g/m*3 8.6 C 0 km/h
317 23-05-2019 02:20:00 8.6 C 8.08 g/m*3 8.6 C 0 km/h
318 23-05-2019 02:25:00 8.5 C 8.03 g/m*3 8.5 C 0 km/h
319 23-05-2019 02:30:00 8.5 C 8.03 g/m*3 8.5 C 0 km/h
320 23-05-2019 02:35:00 8.5 C 8.03 g/m*3 8.5 C 0 km/h
321 23-05-2019 02:40:00 8.4 C 7.97 g/m*3 8.4 C 0 km/h
322 23-05-2019 02:45:00 8.4 C 7.97 g/m*3 8.4 C 0 km/h
323 23-05-2019 02:50:00 8.4 C 7.97 g/m*3 8.4 C 0 km/h
324 23-05-2019 02:55:00 8.4 C 7.97 g/m*3 8.4 C 0 km/h
325 23-05-2019 03:00:00 8.4 C 7.97 g/m*3 8.4 C 0 km/h
Sensor: Nr:Datum:Temp:Abs-Feuchte:Windchill:Wind:
Aussen-T/F 326 23-05-2019 03:05:00 8.4 C 8.06 g/m*3 8.4 C 0 km/h
327 23-05-2019 03:10:00 8.5 C 8.11 g/m*3 8.5 C 0 km/h
328 23-05-2019 03:15:00 8.5 C 8.11 g/m*3 8.5 C 0 km/h
329 23-05-2019 03:20:00 8.5 C 8.11 g/m*3 8.5 C 0 km/h
330 23-05-2019 03:25:00 8.4 C 7.97 g/m*3 8.4 C 0 km/h
331 23-05-2019 03:30:00 8.4 C 8.06 g/m*3 8.4 C 0 km/h
332 23-05-2019 03:35:00 8.3 C 8.01 g/m*3 8.3 C 0 km/h
333 23-05-2019 03:40:00 8.3 C 8.01 g/m*3 8.3 C 0 km/h
334 23-05-2019 03:45:00 8.2 C 7.96 g/m*3 8.2 C 0 km/h
335 23-05-2019 03:50:00 8.2 C 7.96 g/m*3 8.2 C 0 km/h
336 23-05-2019 03:55:00 8.2 C 7.96 g/m*3 8.2 C 0 km/h
337 23-05-2019 04:00:00 8.2 C 7.96 g/m*3 8.2 C 0 km/h
338 23-05-2019 04:05:00 8.1 C 7.9 g/m*3 8.1 C 0 km/h
339 23-05-2019 04:10:00 8.1 C 7.9 g/m*3 8.1 C 0 km/h
340 23-05-2019 04:15:00 8 C 7.85 g/m*3 8 C 0 km/h
341 23-05-2019 04:20:00 7.9 C 7.8 g/m*3 7.9 C 0 km/h
342 23-05-2019 04:25:00 7.9 C 7.8 g/m*3 7.9 C 0 km/h
343 23-05-2019 04:30:00 7.9 C 7.8 g/m*3 7.9 C 0 km/h
344 23-05-2019 04:35:00 7.9 C 7.8 g/m*3 7.9 C 0 km/h
345 23-05-2019 04:40:00 7.8 C 7.75 g/m*3 7.8 C 0 km/h
346 23-05-2019 04:45:00 7.8 C 7.75 g/m*3 7.8 C 0 km/h
347 23-05-2019 04:50:00 7.8 C 7.75 g/m*3 7.8 C 0 km/h
348 23-05-2019 04:55:00 7.8 C 7.75 g/m*3 7.8 C 0 km/h
349 23-05-2019 05:00:00 7.8 C 7.75 g/m*3 7.8 C 0 km/h
350 23-05-2019 05:05:00 7.8 C 7.75 g/m*3 7.8 C 0 km/h
Sensor: Nr:Datum:Temp:Abs-Feuchte:Windchill:Wind:
Aussen-T/F 351 23-05-2019 05:10:00 7.7 C 7.7 g/m*3 7.7 C 1.6 km/h
352 23-05-2019 05:15:00 7.7 C 7.7 g/m*3 7.7 C 0 km/h
353 23-05-2019 05:20:00 7.8 C 7.83 g/m*3 7.8 C 0 km/h
354 23-05-2019 05:25:00 7.8 C 7.83 g/m*3 7.8 C 1.6 km/h
355 23-05-2019 05:30:00 7.8 C 7.83 g/m*3 7.8 C 0 km/h
356 23-05-2019 05:35:00 7.7 C 7.7 g/m*3 7.7 C 0 km/h
357 23-05-2019 05:40:00 7.7 C 7.7 g/m*3 7.7 C 0 km/h
358 23-05-2019 05:45:00 7.6 C 7.65 g/m*3 7.6 C 0 km/h
359 23-05-2019 05:50:00 7.6 C 7.65 g/m*3 7.6 C 0 km/h
360 23-05-2019 05:55:00 7.6 C 7.65 g/m*3 7.6 C 0 km/h
361 23-05-2019 06:00:00 7.6 C 7.73 g/m*3 7.6 C 0 km/h
362 23-05-2019 06:05:00 7.7 C 7.78 g/m*3 7.7 C 0 km/h
363 23-05-2019 06:10:00 7.7 C 7.78 g/m*3 7.7 C 0 km/h
364 23-05-2019 06:15:00 7.7 C 7.78 g/m*3 7.7 C 0 km/h
365 23-05-2019 06:20:00 7.7 C 7.78 g/m*3 7.7 C 0 km/h
366 23-05-2019 06:25:00 7.8 C 7.83 g/m*3 7.8 C 0 km/h
367 23-05-2019 06:30:00 7.9 C 7.89 g/m*3 7.9 C 0 km/h
368 23-05-2019 06:35:00 8 C 7.94 g/m*3 8 C 0 km/h
369 23-05-2019 06:40:00 8.1 C 7.99 g/m*3 8.1 C 1.6 km/h
370 23-05-2019 06:45:00 8.1 C 7.99 g/m*3 8.1 C 1.6 km/h
371 23-05-2019 06:50:00 8.2 C 8.04 g/m*3 8.2 C 0 km/h
372 23-05-2019 06:55:00 8.3 C 8.09 g/m*3 8.3 C 0 km/h
373 23-05-2019 07:00:00 8.4 C 8.14 g/m*3 8.4 C 0 km/h
374 23-05-2019 07:05:00 8.4 C 8.14 g/m*3 8.4 C 0 km/h
375 23-05-2019 07:10:00 8.5 C 8.2 g/m*3 8.5 C 0 km/h
Sensor: Nr:Datum:Temp:Abs-Feuchte:Windchill:Wind:
Aussen-T/F 376 23-05-2019 07:15:00 8.6 C 8.25 g/m*3 8.6 C 0 km/h
377 23-05-2019 07:20:00 8.7 C 8.3 g/m*3 8.7 C 0 km/h
378 23-05-2019 07:25:00 8.7 C 8.3 g/m*3 8.7 C 0 km/h
379 23-05-2019 07:30:00 8.7 C 8.3 g/m*3 8.7 C 0 km/h
380 23-05-2019 07:35:00 8.7 C 8.3 g/m*3 8.7 C 4.8 km/h
381 23-05-2019 07:40:00 8.8 C 8.36 g/m*3 8.8 C 4.8 km/h
382 23-05-2019 07:45:00 8.8 C 8.36 g/m*3 8.8 C 1.6 km/h
383 23-05-2019 07:50:00 8.9 C 8.41 g/m*3 8.9 C 0 km/h
384 23-05-2019 07:55:00 8.9 C 8.41 g/m*3 8.9 C 0 km/h
385 23-05-2019 08:00:00 9.1 C 8.52 g/m*3 9.1 C 0 km/h
386 23-05-2019 08:05:00 9.1 C 8.52 g/m*3 9.1 C 1.6 km/h
387 23-05-2019 08:10:00 9.2 C 8.57 g/m*3 9.2 C 0 km/h
388 23-05-2019 08:15:00 9.3 C 8.63 g/m*3 9.3 C 0 km/h
389 23-05-2019 08:20:00 9.4 C 8.68 g/m*3 9.4 C 1.6 km/h
390 23-05-2019 08:25:00 9.6 C 8.79 g/m*3 9.6 C 0 km/h
391 23-05-2019 08:30:00 9.6 C 8.79 g/m*3 9.6 C 0 km/h
392 23-05-2019 08:35:00 9.8 C 8.91 g/m*3 9.8 C 0 km/h
393 23-05-2019 08:40:00 9.8 C 8.91 g/m*3 9.8 C 0 km/h
394 23-05-2019 08:45:00 9.9 C 8.96 g/m*3 9.9 C 0 km/h
395 23-05-2019 08:50:00 10.1 C 8.98 g/m*3 10.1 C 0 km/h
396 23-05-2019 08:55:00 10.2 C 9.04 g/m*3 10.2 C 0 km/h
397 23-05-2019 09:00:00 10.3 C 9.1 g/m*3 10.3 C 0 km/h
398 23-05-2019 09:05:00 10.4 C 9.16 g/m*3 10.4 C 0 km/h
399 23-05-2019 09:10:00 10.5 C 9.21 g/m*3 10.5 C 0 km/h
400 23-05-2019 09:15:00 10.6 C 9.17 g/m*3 10.6 C 0 km/h
Sensor: Nr:Datum:Temp:Abs-Feuchte:Windchill:Wind:
Aussen-T/F 401 23-05-2019 09:20:00 10.8 C 9.29 g/m*3 10.8 C 0 km/h
402 23-05-2019 09:25:00 11 C 9.41 g/m*3 11 C 0 km/h
403 23-05-2019 09:30:00 11.1 C 9.47 g/m*3 11.1 C 0 km/h
404 23-05-2019 09:35:00 11.3 C 9.59 g/m*3 11.3 C 0 km/h
405 23-05-2019 09:40:00 11.4 C 9.55 g/m*3 11.4 C 0 km/h
406 23-05-2019 09:45:00 11.6 C 9.77 g/m*3 11.6 C 0 km/h
407 23-05-2019 09:50:00 11.8 C 9.79 g/m*3 11.8 C 0 km/h
408 23-05-2019 09:55:00 11.9 C 9.85 g/m*3 11.9 C 0 km/h
409 23-05-2019 10:00:00 12.1 C 9.97 g/m*3 12.1 C 0 km/h
410 23-05-2019 10:05:00 12.3 C 9.99 g/m*3 12.3 C 0 km/h
411 23-05-2019 10:10:00 12.5 C 10 g/m*3 12.5 C 0 km/h
412 23-05-2019 10:15:00 12.8 C 10.19 g/m*3 12.8 C 0 km/h
413 23-05-2019 10:20:00 13.1 C 10.38 g/m*3 13.1 C 0 km/h
414 23-05-2019 10:25:00 13.4 C 10.58 g/m*3 13.4 C 0 km/h
415 23-05-2019 10:30:00 13.8 C 10.72 g/m*3 13.8 C 0 km/h
416 23-05-2019 10:35:00 14.1 C 10.8 g/m*3 14.1 C 0 km/h
417 23-05-2019 10:40:00 14.5 C 10.57 g/m*3 14.5 C 1.6 km/h
418 23-05-2019 10:45:00 14.9 C 10.32 g/m*3 14.9 C 4.8 km/h
419 23-05-2019 10:50:00 15.5 C 10.44 g/m*3 15.5 C 6.4 km/h
420 23-05-2019 10:55:00 16 C 10.35 g/m*3 16 C 8.1 km/h
421 23-05-2019 11:00:00 16.4 C 10.47 g/m*3 16.4 C 6.4 km/h
422 23-05-2019 11:05:00 16.7 C 10.09 g/m*3 16.7 C 1.6 km/h
423 23-05-2019 11:10:00 16.9 C 10.36 g/m*3 16.9 C 6.4 km/h
424 23-05-2019 11:15:00 17.1 C 9.75 g/m*3 17.1 C 9.7 km/h
425 23-05-2019 11:20:00 17.3 C 9.43 g/m*3 17.3 C 8.1 km/h
Sensor: Nr:Datum:Temp:Abs-Feuchte:Windchill:Wind:
Aussen-T/F 426 23-05-2019 11:25:00 17.6 C 9.6 g/m*3 17.6 C 6.4 km/h
427 23-05-2019 11:30:00 17.7 C 9.81 g/m*3 17.7 C 8.1 km/h
428 23-05-2019 11:35:00 17.8 C 9.41 g/m*3 17.8 C 8.1 km/h
429 23-05-2019 11:40:00 18.1 C 9.89 g/m*3 18.1 C 6.4 km/h
430 23-05-2019 11:45:00 18.1 C 9.89 g/m*3 18.1 C 4.8 km/h
431 23-05-2019 11:50:00 18.1 C 9.43 g/m*3 18.1 C 8.1 km/h
432 23-05-2019 11:55:00 18.1 C 9.58 g/m*3 18.1 C 8.1 km/h
433 23-05-2019 12:00:00 18.2 C 9.64 g/m*3 18.2 C 6.4 km/h
434 23-05-2019 12:05:00 18.2 C 9.64 g/m*3 18.2 C 6.4 km/h
435 23-05-2019 12:10:00 18.3 C 9.54 g/m*3 18.3 C 6.4 km/h
436 23-05-2019 12:15:00 18.4 C 9.28 g/m*3 18.4 C 4.8 km/h
437 23-05-2019 12:20:00 18.6 C 8.91 g/m*3 18.6 C 6.4 km/h
438 23-05-2019 12:25:00 18.7 C 8.65 g/m*3 18.7 C 11.3 km/h
439 23-05-2019 12:30:00 18.9 C 8.91 g/m*3 18.9 C 6.4 km/h
440 23-05-2019 12:35:00 19.2 C 9.23 g/m*3 19.2 C 9.7 km/h
441 23-05-2019 12:40:00 19.4 C 9.51 g/m*3 19.4 C 6.4 km/h
442 23-05-2019 12:45:00 19.4 C 9.34 g/m*3 19.4 C 11.3 km/h
443 23-05-2019 12:50:00 19.4 C 9.34 g/m*3 19.4 C 4.8 km/h
444 23-05-2019 12:55:00 19.4 C 10.01 g/m*3 19.4 C 3.2 km/h
445 23-05-2019 13:00:00 19.4 C 11.01 g/m*3 19.4 C 0 km/h
446 23-05-2019 13:05:00 19.3 C 11.44 g/m*3 19.3 C 0 km/h
447 23-05-2019 13:10:00 19.2 C 10.06 g/m*3 19.2 C 0 km/h
448 23-05-2019 13:15:00 19.2 C 9.56 g/m*3 19.2 C 4.8 km/h
449 23-05-2019 13:20:00 19.3 C 9.62 g/m*3 19.3 C 3.2 km/h
450 23-05-2019 13:25:00 19.6 C 9.28 g/m*3 19.6 C 4.8 km/h
Sensor: Nr:Datum:Temp:Abs-Feuchte:Windchill:Wind:
Aussen-T/F 451 23-05-2019 13:30:00 19.9 C 9.11 g/m*3 19.9 C 6.4 km/h
452 23-05-2019 13:35:00 20.1 C 9.21 g/m*3 20.1 C 8.1 km/h
453 23-05-2019 13:40:00 20.2 C 9.27 g/m*3 20.2 C 6.4 km/h
454 23-05-2019 13:45:00 20.4 C 8.85 g/m*3 20.4 C 6.4 km/h
455 23-05-2019 13:50:00 20.6 C 8.95 g/m*3 20.6 C 12.9 km/h
456 23-05-2019 13:55:00 20.8 C 9.23 g/m*3 20.8 C 11.3 km/h
457 23-05-2019 14:00:00 20.8 C 9.05 g/m*3 20.8 C 9.7 km/h
458 23-05-2019 14:05:00 20.8 C 9.23 g/m*3 20.8 C 9.7 km/h
459 23-05-2019 14:10:00 21 C 8.79 g/m*3 21 C 11.3 km/h
460 23-05-2019 14:15:00 21.1 C 8.48 g/m*3 21.1 C 3.2 km/h
461 23-05-2019 14:20:00 21.2 C 9.27 g/m*3 21.2 C 11.3 km/h
462 23-05-2019 14:25:00 21.3 C 9.69 g/m*3 21.3 C 9.7 km/h
463 23-05-2019 14:30:00 21.4 C 9 g/m*3 21.4 C 8.1 km/h
464 23-05-2019 14:35:00 21.4 C 9.37 g/m*3 21.4 C 6.4 km/h
465 23-05-2019 14:40:00 21.4 C 9 g/m*3 21.4 C 8.1 km/h
466 23-05-2019 14:45:00 21.4 C 8.44 g/m*3 21.4 C 6.4 km/h
467 23-05-2019 14:50:00 21.6 C 9.67 g/m*3 21.6 C 4.8 km/h
468 23-05-2019 14:55:00 21.7 C 8.97 g/m*3 21.7 C 4.8 km/h
469 23-05-2019 15:00:00 21.7 C 8.97 g/m*3 21.7 C 0 km/h
470 23-05-2019 15:05:00 21.8 C 9.78 g/m*3 21.8 C 6.4 km/h
471 23-05-2019 15:10:00 21.9 C 8.68 g/m*3 21.9 C 4.8 km/h
472 23-05-2019 15:15:00 21.8 C 8.44 g/m*3 21.8 C 4.8 km/h
473 23-05-2019 15:20:00 21.8 C 9.98 g/m*3 21.8 C 0 km/h
474 23-05-2019 15:25:00 21.8 C 9.98 g/m*3 21.8 C 0 km/h
475 23-05-2019 15:30:00 21.9 C 10.23 g/m*3 21.9 C 8.1 km/h
Sensor: Nr:Datum:Temp:Abs-Feuchte:Windchill:Wind:
Aussen-T/F 476 23-05-2019 15:35:00 22.4 C 8.54 g/m*3 22.4 C 6.4 km/h
477 23-05-2019 15:40:00 22.7 C 8.28 g/m*3 22.7 C 4.8 km/h
478 23-05-2019 15:45:00 23.2 C 8.73 g/m*3 23.2 C 6.4 km/h
479 23-05-2019 15:50:00 23.6 C 8.72 g/m*3 23.6 C 4.8 km/h
480 23-05-2019 15:55:00 24 C 9.14 g/m*3 24 C 8.1 km/h
481 23-05-2019 16:00:00 24 C 8.92 g/m*3 24 C 11.3 km/h
482 23-05-2019 16:05:00 23.9 C 8.87 g/m*3 23.9 C 9.7 km/h
483 23-05-2019 16:10:00 24 C 8.92 g/m*3 24 C 8.1 km/h
484 23-05-2019 16:15:00 24.1 C 8.53 g/m*3 24.1 C 8.1 km/h
485 23-05-2019 16:20:00 24.3 C 8.41 g/m*3 24.3 C 3.2 km/h
486 23-05-2019 16:25:00 24.3 C 8.41 g/m*3 24.3 C 9.7 km/h
487 23-05-2019 16:30:00 24.3 C 8.41 g/m*3 24.3 C 8.1 km/h
488 23-05-2019 16:35:00 24.5 C 9.62 g/m*3 24.5 C 3.2 km/h
489 23-05-2019 16:40:00 24.8 C 7.97 g/m*3 24.8 C 4.8 km/h
490 23-05-2019 16:45:00 24.8 C 9.56 g/m*3 24.8 C 4.8 km/h
491 23-05-2019 16:50:00 24.9 C 8.7 g/m*3 24.9 C 6.4 km/h
492 23-05-2019 16:55:00 24.8 C 8.42 g/m*3 24.8 C 9.7 km/h
493 23-05-2019 17:00:00 24.7 C 8.37 g/m*3 24.7 C 9.7 km/h
494 23-05-2019 17:05:00 24.7 C 8.37 g/m*3 24.7 C 8.1 km/h
495 23-05-2019 17:10:00 24.7 C 8.6 g/m*3 24.7 C 11.3 km/h
496 23-05-2019 17:15:00 24.7 C 8.15 g/m*3 24.7 C 11.3 km/h
497 23-05-2019 17:20:00 24.5 C 8.73 g/m*3 24.5 C 6.4 km/h
498 23-05-2019 17:25:00 24.6 C 8.33 g/m*3 24.6 C 8.1 km/h
499 23-05-2019 17:30:00 24.9 C 8.47 g/m*3 24.9 C 11.3 km/h
500 23-05-2019 17:35:00 25.1 C 8.33 g/m*3 25.1 C 9.7 km/h
Sensor: Nr:Datum:Temp:Abs-Feuchte:Windchill:Wind:
Aussen-T/F 501 23-05-2019 17:40:00 24.9 C 8.47 g/m*3 24.9 C 6.4 km/h
502 23-05-2019 17:45:00 24.9 C 9.16 g/m*3 24.9 C 8.1 km/h
503 23-05-2019 17:50:00 24.9 C 8.7 g/m*3 24.9 C 8.1 km/h
504 23-05-2019 17:55:00 24.8 C 8.88 g/m*3 24.8 C 6.4 km/h
505 23-05-2019 18:00:00 24.8 C 8.65 g/m*3 24.8 C 6.4 km/h
506 23-05-2019 18:05:00 24.8 C 9.1 g/m*3 24.8 C 4.8 km/h
507 23-05-2019 18:10:00 25 C 8.52 g/m*3 25 C 4.8 km/h
508 23-05-2019 18:15:00 25.2 C 8.61 g/m*3 25.2 C 9.7 km/h
509 23-05-2019 18:20:00 25.2 C 8.61 g/m*3 25.2 C 3.2 km/h
510 23-05-2019 18:25:00 25.4 C 9.42 g/m*3 25.4 C 4.8 km/h
511 23-05-2019 18:30:00 25.4 C 8.71 g/m*3 25.4 C 4.8 km/h
512 23-05-2019 18:35:00 25.3 C 8.43 g/m*3 25.3 C 6.4 km/h
513 23-05-2019 18:40:00 24.9 C 8.24 g/m*3 24.9 C 6.4 km/h
514 23-05-2019 18:45:00 24.7 C 8.37 g/m*3 24.7 C 3.2 km/h
515 23-05-2019 18:50:00 24.5 C 8.5 g/m*3 24.5 C 4.8 km/h
516 23-05-2019 18:55:00 24.4 C 8.23 g/m*3 24.4 C 4.8 km/h
517 23-05-2019 19:00:00 24.3 C 8.41 g/m*3 24.3 C 4.8 km/h
518 23-05-2019 19:05:00 23.8 C 8.6 g/m*3 23.8 C 8.1 km/h
519 23-05-2019 19:10:00 23.4 C 8.62 g/m*3 23.4 C 6.4 km/h
520 23-05-2019 19:15:00 23.2 C 8.52 g/m*3 23.2 C 4.8 km/h
521 23-05-2019 19:20:00 23.1 C 11.37 g/m*3 23.1 C 0 km/h
522 23-05-2019 19:25:00 22.8 C 11.58 g/m*3 22.8 C 0 km/h
523 23-05-2019 19:30:00 22.6 C 11.65 g/m*3 22.6 C 0 km/h
524 23-05-2019 19:35:00 22.4 C 12.11 g/m*3 22.4 C 0 km/h
525 23-05-2019 19:40:00 22.3 C 11.85 g/m*3 22.3 C 0 km/h
Sensor: Nr:Datum:Temp:Abs-Feuchte:Windchill:Wind:
Aussen-T/F 526 23-05-2019 19:45:00 22.2 C 11.78 g/m*3 22.2 C 0 km/h
527 23-05-2019 19:50:00 21.9 C 11.58 g/m*3 21.9 C 0 km/h
528 23-05-2019 19:55:00 21.7 C 11.64 g/m*3 21.7 C 0 km/h
529 23-05-2019 20:00:00 21.3 C 11.37 g/m*3 21.3 C 0 km/h
530 23-05-2019 20:05:00 20.8 C 11.05 g/m*3 20.8 C 0 km/h
531 23-05-2019 20:10:00 20.3 C 10.73 g/m*3 20.3 C 0 km/h
532 23-05-2019 20:15:00 19.9 C 10.82 g/m*3 19.9 C 0 km/h
533 23-05-2019 20:20:00 19.7 C 10.87 g/m*3 19.7 C 0 km/h
534 23-05-2019 20:25:00 19.3 C 10.78 g/m*3 19.3 C 0 km/h
535 23-05-2019 20:30:00 19.1 C 10.82 g/m*3 19.1 C 0 km/h
536 23-05-2019 20:35:00 18.8 C 10.79 g/m*3 18.8 C 0 km/h
537 23-05-2019 20:40:00 18.6 C 10.66 g/m*3 18.6 C 0 km/h
538 23-05-2019 20:45:00 18.3 C 10.48 g/m*3 18.3 C 0 km/h
539 23-05-2019 20:50:00 18.1 C 10.35 g/m*3 18.1 C 0 km/h
540 23-05-2019 20:55:00 17.8 C 10.47 g/m*3 17.8 C 0 km/h
541 23-05-2019 21:00:00 17.7 C 10.41 g/m*3 17.7 C 0 km/h
542 23-05-2019 21:05:00 17.3 C 10.31 g/m*3 17.3 C 0 km/h
543 23-05-2019 21:10:00 17.1 C 10.34 g/m*3 17.1 C 0 km/h
544 23-05-2019 21:15:00 16.8 C 10.29 g/m*3 16.8 C 0 km/h
545 23-05-2019 21:20:00 16.6 C 10.31 g/m*3 16.6 C 0 km/h
546 23-05-2019 21:25:00 16.4 C 10.33 g/m*3 16.4 C 0 km/h
547 23-05-2019 21:30:00 16.3 C 10.41 g/m*3 16.3 C 0 km/h
548 23-05-2019 21:35:00 16.1 C 10.28 g/m*3 16.1 C 0 km/h
549 23-05-2019 21:40:00 15.9 C 10.29 g/m*3 15.9 C 0 km/h
550 23-05-2019 21:45:00 15.7 C 10.3 g/m*3 15.7 C 0 km/h
Sensor: Nr:Datum:Temp:Abs-Feuchte:Windchill:Wind:
Aussen-T/F 551 23-05-2019 21:50:00 15.6 C 10.37 g/m*3 15.6 C 0 km/h
552 23-05-2019 21:55:00 15.4 C 10.38 g/m*3 15.4 C 0 km/h
553 23-05-2019 22:00:00 15.2 C 10.38 g/m*3 15.2 C 0 km/h
554 23-05-2019 22:05:00 15.1 C 10.45 g/m*3 15.1 C 0 km/h
555 23-05-2019 22:10:00 14.9 C 10.32 g/m*3 14.9 C 0 km/h
556 23-05-2019 22:15:00 14.8 C 10.39 g/m*3 14.8 C 0 km/h
557 23-05-2019 22:20:00 14.7 C 10.32 g/m*3 14.7 C 0 km/h
558 23-05-2019 22:25:00 14.7 C 10.32 g/m*3 14.7 C 0 km/h
559 23-05-2019 22:30:00 14.7 C 10.32 g/m*3 14.7 C 0 km/h
560 23-05-2019 22:35:00 14.6 C 10.39 g/m*3 14.6 C 0 km/h
561 23-05-2019 22:40:00 14.6 C 10.39 g/m*3 14.6 C 0 km/h
562 23-05-2019 22:45:00 14.4 C 10.14 g/m*3 14.4 C 0 km/h
563 23-05-2019 22:50:00 14.3 C 10.2 g/m*3 14.3 C 0 km/h
564 23-05-2019 22:55:00 14.2 C 10.14 g/m*3 14.2 C 0 km/h
565 23-05-2019 23:00:00 14.1 C 10.19 g/m*3 14.1 C 0 km/h
566 23-05-2019 23:05:00 13.9 C 10.07 g/m*3 13.9 C 0 km/h
567 23-05-2019 23:10:00 13.9 C 9.95 g/m*3 13.9 C 0 km/h
568 23-05-2019 23:15:00 13.9 C 9.95 g/m*3 13.9 C 0 km/h
569 23-05-2019 23:20:00 13.9 C 9.95 g/m*3 13.9 C 0 km/h
570 23-05-2019 23:25:00 13.8 C 9.89 g/m*3 13.8 C 0 km/h
571 23-05-2019 23:30:00 13.7 C 9.95 g/m*3 13.7 C 0 km/h
572 23-05-2019 23:35:00 13.6 C 9.89 g/m*3 13.6 C 0 km/h
573 23-05-2019 23:40:00 13.5 C 9.83 g/m*3 13.5 C 0 km/h
574 23-05-2019 23:45:00 13.3 C 9.7 g/m*3 13.3 C 0 km/h
575 23-05-2019 23:50:00 13.2 C 9.64 g/m*3 13.2 C 0 km/h
Sensor: Nr:Datum:Temp:Abs-Feuchte:Windchill:Wind:
Aussen-T/F 576 23-05-2019 23:55:00 13.2 C 9.76 g/m*3 13.2 C 0 km/h
577 24-05-2019 00:00:00 13.1 C 9.7 g/m*3 13.1 C 0 km/h
578 24-05-2019 00:05:00 13.1 C 9.81 g/m*3 13.1 C 0 km/h
579 24-05-2019 00:10:00 13 C 9.75 g/m*3 13 C 0 km/h
580 24-05-2019 00:15:00 12.9 C 9.81 g/m*3 12.9 C 0 km/h
581 24-05-2019 00:20:00 12.9 C 9.69 g/m*3 12.9 C 1.6 km/h
582 24-05-2019 00:25:00 12.9 C 9.81 g/m*3 12.9 C 1.6 km/h
583 24-05-2019 00:30:00 12.8 C 9.63 g/m*3 12.8 C 1.6 km/h
584 24-05-2019 00:35:00 12.8 C 9.63 g/m*3 12.8 C 0 km/h
585 24-05-2019 00:40:00 12.7 C 9.68 g/m*3 12.7 C 0 km/h
586 24-05-2019 00:45:00 12.6 C 9.62 g/m*3 12.6 C 0 km/h
587 24-05-2019 00:50:00 12.6 C 9.51 g/m*3 12.6 C 3.2 km/h
588 24-05-2019 00:55:00 12.7 C 9.68 g/m*3 12.7 C 3.2 km/h
589 24-05-2019 01:00:00 12.6 C 9.62 g/m*3 12.6 C 0 km/h
590 24-05-2019 01:05:00 12.6 C 9.62 g/m*3 12.6 C 0 km/h
591 24-05-2019 01:10:00 12.5 C 9.57 g/m*3 12.5 C 0 km/h
592 24-05-2019 01:15:00 12.4 C 9.51 g/m*3 12.4 C 0 km/h
593 24-05-2019 01:20:00 12.3 C 9.56 g/m*3 12.3 C 0 km/h
594 24-05-2019 01:25:00 12.3 C 9.56 g/m*3 12.3 C 0 km/h
595 24-05-2019 01:30:00 12.3 C 9.56 g/m*3 12.3 C 0 km/h
596 24-05-2019 01:35:00 12.3 C 9.56 g/m*3 12.3 C 0 km/h
597 24-05-2019 01:40:00 12.3 C 9.56 g/m*3 12.3 C 0 km/h
598 24-05-2019 01:45:00 12.3 C 9.56 g/m*3 12.3 C 0 km/h
599 24-05-2019 01:50:00 12.3 C 9.45 g/m*3 12.3 C 0 km/h
600 24-05-2019 01:55:00 12.2 C 9.5 g/m*3 12.2 C 0 km/h
Sensor: Nr:Datum:Temp:Abs-Feuchte:Windchill:Wind:
Aussen-T/F 601 24-05-2019 02:00:00 12.1 C 9.44 g/m*3 12.1 C 0 km/h
602 24-05-2019 02:05:00 12 C 9.38 g/m*3 12 C 0 km/h
603 24-05-2019 02:10:00 11.9 C 9.32 g/m*3 11.9 C 0 km/h
604 24-05-2019 02:15:00 11.9 C 9.43 g/m*3 11.9 C 0 km/h
605 24-05-2019 02:20:00 11.8 C 9.37 g/m*3 11.8 C 0 km/h
606 24-05-2019 02:25:00 11.8 C 9.37 g/m*3 11.8 C 0 km/h
607 24-05-2019 02:30:00 11.8 C 9.47 g/m*3 11.8 C 0 km/h
608 24-05-2019 02:35:00 11.8 C 9.47 g/m*3 11.8 C 0 km/h
609 24-05-2019 02:40:00 11.8 C 9.47 g/m*3 11.8 C 0 km/h
610 24-05-2019 02:45:00 11.7 C 9.41 g/m*3 11.7 C 0 km/h
611 24-05-2019 02:50:00 11.7 C 9.41 g/m*3 11.7 C 0 km/h
612 24-05-2019 02:55:00 11.7 C 9.41 g/m*3 11.7 C 0 km/h
613 24-05-2019 03:00:00 11.6 C 9.35 g/m*3 11.6 C 0 km/h
614 24-05-2019 03:05:00 11.6 C 9.35 g/m*3 11.6 C 0 km/h
615 24-05-2019 03:10:00 11.6 C 9.46 g/m*3 11.6 C 0 km/h
616 24-05-2019 03:15:00 11.5 C 9.4 g/m*3 11.5 C 0 km/h
617 24-05-2019 03:20:00 11.4 C 9.34 g/m*3 11.4 C 0 km/h
618 24-05-2019 03:25:00 11.4 C 9.34 g/m*3 11.4 C 0 km/h
619 24-05-2019 03:30:00 11.3 C 9.28 g/m*3 11.3 C 0 km/h
620 24-05-2019 03:35:00 11.3 C 9.28 g/m*3 11.3 C 0 km/h
621 24-05-2019 03:40:00 11.3 C 9.28 g/m*3 11.3 C 0 km/h
622 24-05-2019 03:45:00 11.3 C 9.28 g/m*3 11.3 C 0 km/h
623 24-05-2019 03:50:00 11.3 C 9.38 g/m*3 11.3 C 0 km/h
624 24-05-2019 03:55:00 11.3 C 9.38 g/m*3 11.3 C 0 km/h
625 24-05-2019 04:00:00 11.3 C 9.38 g/m*3 11.3 C 0 km/h
Sensor: Nr:Datum:Temp:Abs-Feuchte:Windchill:Wind:
Aussen-T/F 626 24-05-2019 04:05:00 11.3 C 9.38 g/m*3 11.3 C 0 km/h
627 24-05-2019 04:10:00 11.3 C 9.38 g/m*3 11.3 C 0 km/h
628 24-05-2019 04:15:00 11.3 C 9.38 g/m*3 11.3 C 0 km/h
629 24-05-2019 04:20:00 11.3 C 9.38 g/m*3 11.3 C 0 km/h
630 24-05-2019 04:25:00 11.2 C 9.33 g/m*3 11.2 C 0 km/h
631 24-05-2019 04:30:00 11.2 C 9.33 g/m*3 11.2 C 0 km/h
632 24-05-2019 04:35:00 11.2 C 9.33 g/m*3 11.2 C 0 km/h
633 24-05-2019 04:40:00 11.2 C 9.33 g/m*3 11.2 C 0 km/h
634 24-05-2019 04:45:00 11.2 C 9.33 g/m*3 11.2 C 0 km/h
635 24-05-2019 04:50:00 11.2 C 9.33 g/m*3 11.2 C 0 km/h
636 24-05-2019 04:55:00 11.3 C 9.38 g/m*3 11.3 C 0 km/h
637 24-05-2019 05:00:00 11.3 C 9.38 g/m*3 11.3 C 0 km/h
638 24-05-2019 05:05:00 11.3 C 9.38 g/m*3 11.3 C 0 km/h
639 24-05-2019 05:10:00 11.3 C 9.38 g/m*3 11.3 C 0 km/h
640 24-05-2019 05:15:00 11.3 C 9.38 g/m*3 11.3 C 0 km/h
641 24-05-2019 05:20:00 11.2 C 9.33 g/m*3 11.2 C 0 km/h
642 24-05-2019 05:25:00 11.2 C 9.33 g/m*3 11.2 C 0 km/h
643 24-05-2019 05:30:00 11.2 C 9.33 g/m*3 11.2 C 0 km/h
644 24-05-2019 05:35:00 11.1 C 9.27 g/m*3 11.1 C 0 km/h
645 24-05-2019 05:40:00 11.1 C 9.27 g/m*3 11.1 C 1.6 km/h
646 24-05-2019 05:45:00 11.1 C 9.27 g/m*3 11.1 C 0 km/h
647 24-05-2019 05:50:00 11 C 9.21 g/m*3 11 C 0 km/h
648 24-05-2019 05:55:00 10.9 C 9.15 g/m*3 10.9 C 0 km/h
649 24-05-2019 06:00:00 10.9 C 9.15 g/m*3 10.9 C 0 km/h
650 24-05-2019 06:05:00 10.8 C 9.09 g/m*3 10.8 C 0 km/h
Sensor: Nr:Datum:Temp:Abs-Feuchte:Windchill:Wind:
Aussen-T/F 651 24-05-2019 06:10:00 10.8 C 9.09 g/m*3 10.8 C 0 km/h
652 24-05-2019 06:15:00 10.8 C 9.19 g/m*3 10.8 C 0 km/h
653 24-05-2019 06:20:00 10.9 C 9.25 g/m*3 10.9 C 0 km/h
654 24-05-2019 06:25:00 10.9 C 9.25 g/m*3 10.9 C 0 km/h
655 24-05-2019 06:30:00 11 C 9.31 g/m*3 11 C 0 km/h
656 24-05-2019 06:35:00 11.1 C 9.37 g/m*3 11.1 C 0 km/h
657 24-05-2019 06:40:00 11.1 C 9.37 g/m*3 11.1 C 0 km/h
658 24-05-2019 06:45:00 11.2 C 9.43 g/m*3 11.2 C 0 km/h
659 24-05-2019 06:50:00 11.2 C 9.53 g/m*3 11.2 C 0 km/h
660 24-05-2019 06:55:00 11.3 C 9.59 g/m*3 11.3 C 0 km/h
661 24-05-2019 07:00:00 11.3 C 9.59 g/m*3 11.3 C 0 km/h
662 24-05-2019 07:05:00 11.4 C 9.65 g/m*3 11.4 C 1.6 km/h
663 24-05-2019 07:10:00 11.4 C 9.55 g/m*3 11.4 C 0 km/h
664 24-05-2019 07:15:00 11.5 C 9.61 g/m*3 11.5 C 1.6 km/h
665 24-05-2019 07:20:00 11.6 C 9.67 g/m*3 11.6 C 3.2 km/h
666 24-05-2019 07:25:00 11.7 C 9.73 g/m*3 11.7 C 0 km/h
667 24-05-2019 07:30:00 11.8 C 9.79 g/m*3 11.8 C 0 km/h
668 24-05-2019 07:35:00 11.8 C 9.68 g/m*3 11.8 C 0 km/h
669 24-05-2019 07:40:00 11.9 C 9.74 g/m*3 11.9 C 0 km/h
670 24-05-2019 07:45:00 12 C 9.8 g/m*3 12 C 0 km/h
671 24-05-2019 07:50:00 12.1 C 9.87 g/m*3 12.1 C 0 km/h
672 24-05-2019 07:55:00 12.1 C 9.87 g/m*3 12.1 C 0 km/h
673 24-05-2019 08:00:00 12.2 C 9.93 g/m*3 12.2 C 0 km/h
674 24-05-2019 08:05:00 12.4 C 10.05 g/m*3 12.4 C 0 km/h
675 24-05-2019 08:10:00 12.6 C 10.07 g/m*3 12.6 C 0 km/h
Sensor: Nr:Datum:Temp:Abs-Feuchte:Windchill:Wind:
Aussen-T/F 676 24-05-2019 08:15:00 12.8 C 10.3 g/m*3 12.8 C 0 km/h
677 24-05-2019 08:20:00 13 C 10.21 g/m*3 13 C 0 km/h
678 24-05-2019 08:25:00 13.2 C 10.1 g/m*3 13.2 C 0 km/h
679 24-05-2019 08:30:00 13.4 C 10.11 g/m*3 13.4 C 1.6 km/h
680 24-05-2019 08:35:00 13.6 C 10.12 g/m*3 13.6 C 1.6 km/h
681 24-05-2019 08:40:00 13.8 C 10.13 g/m*3 13.8 C 1.6 km/h
682 24-05-2019 08:45:00 13.9 C 10.19 g/m*3 13.9 C 0 km/h
683 24-05-2019 08:50:00 14.2 C 10.5 g/m*3 14.2 C 1.6 km/h
684 24-05-2019 08:55:00 14.4 C 10.51 g/m*3 14.4 C 0 km/h
685 24-05-2019 09:00:00 14.7 C 10.58 g/m*3 14.7 C 1.6 km/h
686 24-05-2019 09:05:00 14.8 C 10.39 g/m*3 14.8 C 3.2 km/h
687 24-05-2019 09:10:00 14.9 C 10.32 g/m*3 14.9 C 3.2 km/h
688 24-05-2019 09:15:00 15.1 C 10.32 g/m*3 15.1 C 1.6 km/h
689 24-05-2019 09:20:00 15.2 C 10.51 g/m*3 15.2 C 3.2 km/h
690 24-05-2019 09:25:00 15.3 C 10.06 g/m*3 15.3 C 1.6 km/h
691 24-05-2019 09:30:00 15.3 C 10.06 g/m*3 15.3 C 0 km/h
692 24-05-2019 09:35:00 15.4 C 10.51 g/m*3 15.4 C 0 km/h
693 24-05-2019 09:40:00 15.6 C 10.51 g/m*3 15.6 C 0 km/h
694 24-05-2019 09:45:00 15.7 C 10.84 g/m*3 15.7 C 0 km/h
695 24-05-2019 09:50:00 15.7 C 10.7 g/m*3 15.7 C 0 km/h
696 24-05-2019 09:55:00 15.7 C 10.84 g/m*3 15.7 C 0 km/h
697 24-05-2019 10:00:00 15.8 C 10.9 g/m*3 15.8 C 0 km/h
698 24-05-2019 10:05:00 15.8 C 10.77 g/m*3 15.8 C 1.6 km/h
699 24-05-2019 10:10:00 16 C 10.63 g/m*3 16 C 3.2 km/h
700 24-05-2019 10:15:00 16.2 C 10.62 g/m*3 16.2 C 0 km/h
Sensor: Nr:Datum:Temp:Abs-Feuchte:Windchill:Wind:
Aussen-T/F 701 24-05-2019 10:20:00 16.4 C 10.75 g/m*3 16.4 C 0 km/h
702 24-05-2019 10:25:00 16.7 C 10.8 g/m*3 16.7 C 0 km/h
703 24-05-2019 10:30:00 16.9 C 10.93 g/m*3 16.9 C 1.6 km/h
704 24-05-2019 10:35:00 17.2 C 11.28 g/m*3 17.2 C 0 km/h
705 24-05-2019 10:40:00 17.4 C 10.97 g/m*3 17.4 C 3.2 km/h
706 24-05-2019 10:45:00 17.6 C 11.1 g/m*3 17.6 C 0 km/h
707 24-05-2019 10:50:00 17.8 C 11.38 g/m*3 17.8 C 1.6 km/h
708 24-05-2019 10:55:00 17.9 C 10.84 g/m*3 17.9 C 0 km/h
709 24-05-2019 11:00:00 18.1 C 11.12 g/m*3 18.1 C 0 km/h
710 24-05-2019 11:05:00 18.2 C 11.04 g/m*3 18.2 C 1.6 km/h
711 24-05-2019 11:10:00 18.3 C 11.1 g/m*3 18.3 C 3.2 km/h
712 24-05-2019 11:15:00 18.5 C 11.23 g/m*3 18.5 C 4.8 km/h
713 24-05-2019 11:20:00 18.7 C 11.37 g/m*3 18.7 C 4.8 km/h
714 24-05-2019 11:25:00 18.9 C 10.85 g/m*3 18.9 C 3.2 km/h
715 24-05-2019 11:30:00 19 C 10.76 g/m*3 19 C 3.2 km/h
716 24-05-2019 11:35:00 19.1 C 10.82 g/m*3 19.1 C 3.2 km/h
717 24-05-2019 11:40:00 19.3 C 10.95 g/m*3 19.3 C 6.4 km/h
718 24-05-2019 11:45:00 19.5 C 11.08 g/m*3 19.5 C 3.2 km/h
719 24-05-2019 11:50:00 19.7 C 10.87 g/m*3 19.7 C 4.8 km/h
720 24-05-2019 11:55:00 19.8 C 11.44 g/m*3 19.8 C 0 km/h
721 24-05-2019 12:00:00 19.9 C 11.17 g/m*3 19.9 C 4.8 km/h
722 24-05-2019 12:05:00 20.1 C 11.13 g/m*3 20.1 C 3.2 km/h
723 24-05-2019 12:10:00 20.2 C 10.84 g/m*3 20.2 C 4.8 km/h
724 24-05-2019 12:15:00 20.3 C 10.73 g/m*3 20.3 C 0 km/h
725 24-05-2019 12:20:00 20.4 C 10.79 g/m*3 20.4 C 1.6 km/h
Sensor: Nr:Datum:Temp:Abs-Feuchte:Windchill:Wind:
Aussen-T/F 726 24-05-2019 12:25:00 20.7 C 10.62 g/m*3 20.7 C 4.8 km/h
727 24-05-2019 12:30:00 20.9 C 10.38 g/m*3 20.9 C 6.4 km/h
728 24-05-2019 12:35:00 21 C 10.44 g/m*3 21 C 4.8 km/h
729 24-05-2019 12:40:00 21.1 C 10.32 g/m*3 21.1 C 4.8 km/h
730 24-05-2019 12:45:00 21.3 C 9.88 g/m*3 21.3 C 9.7 km/h
731 24-05-2019 12:50:00 21.5 C 8.67 g/m*3 21.5 C 9.7 km/h
732 24-05-2019 12:55:00 21.7 C 8.97 g/m*3 21.7 C 11.3 km/h
733 24-05-2019 13:00:00 21.8 C 9.59 g/m*3 21.8 C 8.1 km/h
734 24-05-2019 13:05:00 21.8 C 9.4 g/m*3 21.8 C 6.4 km/h
735 24-05-2019 13:10:00 21.8 C 9.21 g/m*3 21.8 C 4.8 km/h
736 24-05-2019 13:15:00 21.8 C 9.4 g/m*3 21.8 C 1.6 km/h
737 24-05-2019 13:20:00 21.8 C 8.83 g/m*3 21.8 C 6.4 km/h
738 24-05-2019 13:25:00 21.9 C 9.07 g/m*3 21.9 C 8.1 km/h
739 24-05-2019 13:30:00 22 C 8.93 g/m*3 22 C 6.4 km/h
740 24-05-2019 13:35:00 22.1 C 8.78 g/m*3 22.1 C 6.4 km/h
741 24-05-2019 13:40:00 22.3 C 9.48 g/m*3 22.3 C 8.1 km/h
742 24-05-2019 13:45:00 22.4 C 9.33 g/m*3 22.4 C 4.8 km/h
743 24-05-2019 13:50:00 22.6 C 8.64 g/m*3 22.6 C 6.4 km/h
744 24-05-2019 13:55:00 22.8 C 8.94 g/m*3 22.8 C 8.1 km/h
745 24-05-2019 14:00:00 22.9 C 8.79 g/m*3 22.9 C 9.7 km/h
746 24-05-2019 14:05:00 22.9 C 8.58 g/m*3 22.9 C 9.7 km/h
747 24-05-2019 14:10:00 22.9 C 9.4 g/m*3 22.9 C 8.1 km/h
748 24-05-2019 14:15:00 22.9 C 9.4 g/m*3 22.9 C 3.2 km/h
749 24-05-2019 14:20:00 22.9 C 8.79 g/m*3 22.9 C 4.8 km/h
750 24-05-2019 14:25:00 22.9 C 8.79 g/m*3 22.9 C 6.4 km/h
Sensor: Nr:Datum:Temp:Abs-Feuchte:Windchill:Wind:
Aussen-T/F 751 24-05-2019 14:30:00 22.9 C 8.99 g/m*3 22.9 C 4.8 km/h
752 24-05-2019 14:35:00 23 C 9.04 g/m*3 23 C 4.8 km/h
753 24-05-2019 14:40:00 23 C 8.84 g/m*3 23 C 8.1 km/h
754 24-05-2019 14:45:00 23.1 C 8.48 g/m*3 23.1 C 8.1 km/h
755 24-05-2019 14:50:00 23.1 C 8.48 g/m*3 23.1 C 9.7 km/h
756 24-05-2019 14:55:00 23.3 C 8.99 g/m*3 23.3 C 8.1 km/h
757 24-05-2019 15:00:00 23.6 C 8.93 g/m*3 23.6 C 9.7 km/h
758 24-05-2019 15:05:00 23.7 C 8.77 g/m*3 23.7 C 9.7 km/h
759 24-05-2019 15:10:00 23.7 C 8.56 g/m*3 23.7 C 12.9 km/h
760 24-05-2019 15:15:00 23.6 C 8.29 g/m*3 23.6 C 12.9 km/h
761 24-05-2019 15:20:00 23.4 C 8.2 g/m*3 23.4 C 9.7 km/h
762 24-05-2019 15:25:00 23.3 C 8.78 g/m*3 23.3 C 4.8 km/h
763 24-05-2019 15:30:00 23.3 C 8.57 g/m*3 23.3 C 9.7 km/h
764 24-05-2019 15:35:00 23.4 C 8.41 g/m*3 23.4 C 6.4 km/h
765 24-05-2019 15:40:00 23.4 C 8.41 g/m*3 23.4 C 11.3 km/h
766 24-05-2019 15:45:00 23.4 C 8.83 g/m*3 23.4 C 8.1 km/h
767 24-05-2019 15:50:00 23.3 C 8.15 g/m*3 23.3 C 6.4 km/h
768 24-05-2019 15:55:00 23.3 C 8.57 g/m*3 23.3 C 4.8 km/h
769 24-05-2019 16:00:00 23.3 C 8.57 g/m*3 23.3 C 6.4 km/h
770 24-05-2019 16:05:00 23.4 C 9.46 g/m*3 23.4 C 6.4 km/h
771 24-05-2019 16:10:00 23.7 C 8.77 g/m*3 23.7 C 6.4 km/h
772 24-05-2019 16:15:00 23.9 C 8.44 g/m*3 23.9 C 4.8 km/h
773 24-05-2019 16:20:00 24 C 8.7 g/m*3 24 C 3.2 km/h
774 24-05-2019 16:25:00 23.9 C 8.65 g/m*3 23.9 C 4.8 km/h
775 24-05-2019 16:30:00 23.8 C 9.9 g/m*3 23.8 C 4.8 km/h
Sensor: Nr:Datum:Temp:Abs-Feuchte:Windchill:Wind:
Aussen-T/F 776 24-05-2019 16:35:00 23.8 C 8.39 g/m*3 23.8 C 4.8 km/h
777 24-05-2019 16:40:00 24.1 C 8.75 g/m*3 24.1 C 6.4 km/h
778 24-05-2019 16:45:00 24.2 C 8.8 g/m*3 24.2 C 4.8 km/h
779 24-05-2019 16:50:00 24.3 C 8.63 g/m*3 24.3 C 3.2 km/h
780 24-05-2019 16:55:00 24.2 C 8.36 g/m*3 24.2 C 8.1 km/h
781 24-05-2019 17:00:00 24.1 C 8.31 g/m*3 24.1 C 6.4 km/h
782 24-05-2019 17:05:00 23.9 C 8 g/m*3 23.9 C 4.8 km/h
783 24-05-2019 17:10:00 23.9 C 8.44 g/m*3 23.9 C 3.2 km/h
784 24-05-2019 17:15:00 23.9 C 8.44 g/m*3 23.9 C 4.8 km/h
785 24-05-2019 17:20:00 23.9 C 8.87 g/m*3 23.9 C 6.4 km/h
786 24-05-2019 17:25:00 23.9 C 12.11 g/m*3 23.9 C 0 km/h
787 24-05-2019 17:30:00 23.9 C 9.95 g/m*3 23.9 C 1.6 km/h
788 24-05-2019 17:35:00 24.1 C 11.16 g/m*3 24.1 C 0 km/h
789 24-05-2019 17:40:00 24.4 C 8.9 g/m*3 24.4 C 6.4 km/h
790 24-05-2019 17:45:00 24.8 C 9.1 g/m*3 24.8 C 4.8 km/h
791 24-05-2019 17:50:00 25.1 C 9.03 g/m*3 25.1 C 6.4 km/h
792 24-05-2019 17:55:00 25.3 C 10.07 g/m*3 25.3 C 8.1 km/h
793 24-05-2019 18:00:00 25.4 C 8.71 g/m*3 25.4 C 4.8 km/h
794 24-05-2019 18:05:00 25.4 C 8.71 g/m*3 25.4 C 4.8 km/h
795 24-05-2019 18:10:00 25.3 C 11.47 g/m*3 25.3 C 3.2 km/h
796 24-05-2019 18:15:00 25 C 8.75 g/m*3 25 C 9.7 km/h
797 24-05-2019 18:20:00 24.7 C 8.6 g/m*3 24.7 C 8.1 km/h
798 24-05-2019 18:25:00 24.3 C 9.07 g/m*3 24.3 C 8.1 km/h
799 24-05-2019 18:30:00 24.3 C 9.29 g/m*3 24.3 C 6.4 km/h
800 24-05-2019 18:35:00 24.3 C 8.85 g/m*3 24.3 C 6.4 km/h
Sensor: Nr:Datum:Temp:Abs-Feuchte:Windchill:Wind:
Aussen-T/F 801 24-05-2019 18:40:00 24 C 8.7 g/m*3 24 C 6.4 km/h
802 24-05-2019 18:45:00 23.7 C 8.98 g/m*3 23.7 C 4.8 km/h
803 24-05-2019 18:50:00 23.4 C 9.25 g/m*3 23.4 C 4.8 km/h
804 24-05-2019 18:55:00 23.1 C 9.3 g/m*3 23.1 C 4.8 km/h
805 24-05-2019 19:00:00 22.8 C 11.18 g/m*3 22.8 C 0 km/h
806 24-05-2019 19:05:00 22.4 C 11.72 g/m*3 22.4 C 1.6 km/h
807 24-05-2019 19:10:00 21.9 C 11.19 g/m*3 21.9 C 0 km/h
808 24-05-2019 19:15:00 21.5 C 11.5 g/m*3 21.5 C 0 km/h
809 24-05-2019 19:20:00 21 C 10.81 g/m*3 21 C 0 km/h
810 24-05-2019 19:25:00 20.7 C 11.16 g/m*3 20.7 C 0 km/h
811 24-05-2019 19:30:00 20.3 C 10.9 g/m*3 20.3 C 9.7 km/h
812 24-05-2019 19:35:00 20.2 C 9.62 g/m*3 20.2 C 11.3 km/h
813 24-05-2019 19:40:00 20.3 C 9.5 g/m*3 20.3 C 9.7 km/h
814 24-05-2019 19:45:00 20.4 C 9.2 g/m*3 20.4 C 14.5 km/h
815 24-05-2019 19:50:00 20.4 C 9.02 g/m*3 20.4 C 9.7 km/h
816 24-05-2019 19:55:00 20.6 C 8.95 g/m*3 20.6 C 14.5 km/h
817 24-05-2019 20:00:00 20.4 C 9.02 g/m*3 20.4 C 9.7 km/h
818 24-05-2019 20:05:00 20.3 C 9.32 g/m*3 20.3 C 9.7 km/h
819 24-05-2019 20:10:00 20.2 C 10.14 g/m*3 20.2 C 3.2 km/h
820 24-05-2019 20:15:00 20.1 C 10.43 g/m*3 20.1 C 4.8 km/h
821 24-05-2019 20:20:00 19.8 C 9.91 g/m*3 19.8 C 4.8 km/h
822 24-05-2019 20:25:00 19.6 C 9.96 g/m*3 19.6 C 0 km/h
823 24-05-2019 20:30:00 19.4 C 10.68 g/m*3 19.4 C 0 km/h
824 24-05-2019 20:35:00 19.3 C 10.78 g/m*3 19.3 C 0 km/h
825 24-05-2019 20:40:00 19.1 C 10.98 g/m*3 19.1 C 0 km/h
Sensor: Nr:Datum:Temp:Abs-Feuchte:Windchill:Wind:
Aussen-T/F 826 24-05-2019 20:45:00 18.8 C 10.95 g/m*3 18.8 C 0 km/h
827 24-05-2019 20:50:00 18.5 C 10.92 g/m*3 18.5 C 0 km/h
828 24-05-2019 20:55:00 18.2 C 10.72 g/m*3 18.2 C 0 km/h
829 24-05-2019 21:00:00 17.9 C 10.69 g/m*3 17.9 C 0 km/h
830 24-05-2019 21:05:00 17.7 C 10.56 g/m*3 17.7 C 0 km/h
831 24-05-2019 21:10:00 17.5 C 10.59 g/m*3 17.5 C 0 km/h
832 24-05-2019 21:15:00 17.3 C 10.31 g/m*3 17.3 C 0 km/h
833 24-05-2019 21:20:00 17.1 C 10.19 g/m*3 17.1 C 0 km/h
834 24-05-2019 21:25:00 16.9 C 10.07 g/m*3 16.9 C 0 km/h
835 24-05-2019 21:30:00 16.9 C 10.36 g/m*3 16.9 C 0 km/h
836 24-05-2019 21:35:00 16.7 C 9.95 g/m*3 16.7 C 0 km/h
837 24-05-2019 21:40:00 16.6 C 10.31 g/m*3 16.6 C 0 km/h
838 24-05-2019 21:45:00 16.5 C 10.25 g/m*3 16.5 C 0 km/h
839 24-05-2019 21:50:00 16.3 C 10.41 g/m*3 16.3 C 0 km/h
840 24-05-2019 21:55:00 16.2 C 10.2 g/m*3 16.2 C 0 km/h
841 24-05-2019 22:00:00 16 C 10.35 g/m*3 16 C 0 km/h
842 24-05-2019 22:05:00 15.8 C 10.36 g/m*3 15.8 C 0 km/h
843 24-05-2019 22:10:00 15.6 C 10.37 g/m*3 15.6 C 0 km/h
844 24-05-2019 22:15:00 15.4 C 10.38 g/m*3 15.4 C 0 km/h
845 24-05-2019 22:20:00 15.3 C 10.45 g/m*3 15.3 C 0 km/h
846 24-05-2019 22:25:00 15.2 C 10.38 g/m*3 15.2 C 0 km/h
847 24-05-2019 22:30:00 15 C 10.26 g/m*3 15 C 0 km/h
848 24-05-2019 22:35:00 14.9 C 10.2 g/m*3 14.9 C 0 km/h
849 24-05-2019 22:40:00 14.8 C 10.13 g/m*3 14.8 C 0 km/h
850 24-05-2019 22:45:00 14.7 C 10.2 g/m*3 14.7 C 0 km/h
Sensor: Nr:Datum:Temp:Abs-Feuchte:Windchill:Wind:
Aussen-T/F 851 24-05-2019 22:50:00 14.6 C 10.26 g/m*3 14.6 C 0 km/h
852 24-05-2019 22:55:00 14.4 C 10.14 g/m*3 14.4 C 0 km/h
853 24-05-2019 23:00:00 14.3 C 10.2 g/m*3 14.3 C 0 km/h
854 24-05-2019 23:05:00 14.1 C 10.07 g/m*3 14.1 C 0 km/h
855 24-05-2019 23:10:00 14 C 10.13 g/m*3 14 C 0 km/h
856 24-05-2019 23:15:00 13.9 C 10.07 g/m*3 13.9 C 0 km/h
857 24-05-2019 23:20:00 13.8 C 10.13 g/m*3 13.8 C 0 km/h
858 24-05-2019 23:25:00 13.8 C 10.13 g/m*3 13.8 C 0 km/h
859 24-05-2019 23:30:00 13.9 C 10.19 g/m*3 13.9 C 0 km/h
860 24-05-2019 23:35:00 14 C 10.25 g/m*3 14 C 0 km/h
861 24-05-2019 23:40:00 14.1 C 10.32 g/m*3 14.1 C 4.8 km/h
862 24-05-2019 23:45:00 14.2 C 10.26 g/m*3 14.2 C 1.6 km/h
863 24-05-2019 23:50:00 14.3 C 10.2 g/m*3 14.3 C 0 km/h
864 24-05-2019 23:55:00 14.4 C 10.14 g/m*3 14.4 C 0 km/h

Legende:
   Min
   Max


Maximal/Minimal-Werte vom 22.05.2019 - 24.05.2019

Sensor Min Max Avg
Temp
(Aussen-T/F)
7.6 °C
23-05-2019  05:45:00
25.4 °C
23-05-2019  18:25:00
15.15 °C
Abs-Feuchte
(Aussen-T/F)
7.65 g/m*3
23-05-2019  05:45:00
12.11 g/m*3
23-05-2019  19:35:00
9.34 g/m*3
Windchill
(Aussen-T/F)
7.6 C
23-05-2019  05:45:00
25.4 C
23-05-2019  18:25:00
15.07 C

Die Daten stammen von einer Davis Vantage Pro 2 Wetter-Station und werden unter Linux mit der Software wview2wettercgi und aufbereitet. Alle Angaben erfolgen ohne Gewähr für ihre Vollständigkeit oder Richtigkeit.
Kontakt: Rainer Krienke krienke@uni-koblenz.de . Meine Webseiten an der Uni Koblenz oder privat.
Version: $Revision: 0.78 $